Stations météo

Publicité
Edinburgh/Gogarbank, Grande-Bretagne (3166): Température de l'air & dewpoint: 03.12.2019 00:00:00 - 09.12.2019 00:00:00 (GMT)Edinburgh/Gogarbank, Grande-Bretagne (3166): Température de l'air -20cm & Température de l'air -100cm: 03.12.2019 00:00:00 - 09.12.2019 00:00:00 (GMT)Edinburgh/Gogarbank, Grande-Bretagne (3166): Vitesse du vent & gusts: 03.12.2019 00:00:00 - 09.12.2019 00:00:00 (GMT)Edinburgh/Gogarbank, Grande-Bretagne (3166): Direction du vent: 03.12.2019 00:00:00 - 09.12.2019 00:00:00 (GMT)Edinburgh/Gogarbank, Grande-Bretagne (3166): reduced air pressure: 03.12.2019 00:00:00 - 09.12.2019 00:00:00 (GMT)Edinburgh/Gogarbank, Grande-Bretagne (3166): visibility: 03.12.2019 00:00:00 - 09.12.2019 00:00:00 (GMT)Edinburgh/Gogarbank, Grande-Bretagne (3166): Ensoleillement: 03.12.2019 00:00:00 - 09.12.2019 00:00:00 (GMT)Edinburgh/Gogarbank, Grande-Bretagne (3166): Quantités de précipitations: 03.12.2019 00:00:00 - 09.12.2019 00:00:00 (GMT)
Date & Time tt [°C] td [°C] tt -20cm [°C] tt -100cm [°C] ff [km/h] ff [knt] fx [km/h] fx [knt] dd ppp [hPa] vv [km] sd [min] rr [mm]
09.12.2019 00:00:00 - - - - - - - - - - - - -
08.12.2019 23:00:00 4,9 3,2 - - 13 7 - - WSW 981,7 50 0 0,0
08.12.2019 22:00:00 5,1 3,3 - - 22 12 - - WSW 980,0 50 0 0,0
08.12.2019 21:00:00 5,3 3,5 - - 26 14 - - WSW 979,4 50 0 0,2
08.12.2019 20:00:00 5,4 3,7 - - 26 14 46 25 WSW 978,7 11 0 1,0
08.12.2019 19:00:00 4,5 3,0 - - 26 14 52 28 SW 978,2 50 0 0,2
08.12.2019 18:00:00 5,4 3,7 - - 26 14 55 30 SW 978,5 6 0 1,2
08.12.2019 17:00:00 5,3 3,3 - - 29 16 55 30 SW 978,5 12 0 0,6
08.12.2019 16:00:00 6,0 2,9 - - 34 18 59 32 SW 978,5 20 0 0,0
08.12.2019 15:00:00 5,9 3,5 - - 34 18 57 31 SW 979,4 10 0 0,4
08.12.2019 14:00:00 5,4 3,3 - - 35 19 63 34 SW 980,2 14 0 0,2
08.12.2019 13:00:00 5,7 3,7 - - 31 17 55 30 SW 981,3 6 6 1,8
08.12.2019 12:00:00 5,1 3,1 - - 31 17 57 31 W 982,2 9 12 0,4
08.12.2019 11:00:00 6,5 3,5 - - 29 16 61 33 WSW 982,6 16 12 0,2
08.12.2019 10:00:00 6,1 4,0 - - 22 12 - - WSW 983,1 8 0 0,4
08.12.2019 09:00:00 5,3 3,2 7,4 7,7 21 11 67 36 SW 983,5 29 0 0,4
08.12.2019 08:00:00 5,8 3,8 - - 35 19 59 32 WSW 983,9 11 0 0,6
08.12.2019 07:00:00 6,0 4,1 - - 21 11 48 26 WSW 983,8 20 0 0,2
08.12.2019 06:00:00 5,6 3,7 - - 26 14 48 26 WSW 984,1 35 0 1,4
08.12.2019 05:00:00 7,1 4,1 - - 26 14 74 40 WSW 983,5 17 0 0,2
08.12.2019 04:00:00 7,4 4,8 - - 37 20 61 33 W 983,3 21 0 1,4
08.12.2019 03:00:00 8,2 6,4 - - 34 18 63 34 WSW 982,7 7 0 0,8
08.12.2019 02:00:00 8,7 6,6 - - 34 18 59 32 WSW 982,2 7 0 0,0
08.12.2019 01:00:00 10,6 8,1 - - 46 25 78 42 WSW 981,8 26 0 0,6
08.12.2019 00:00:00 10,7 9,2 - - 42 23 68 37 SW 982,3 4,2 - 0,6
07.12.2019 23:00:00 10,4 8,5 - - 46 25 76 41 SSW 983,5 8 0 3,0
07.12.2019 22:00:00 10,5 8,5 - - 39 21 67 36 SSW 985,3 6 0 1,6
07.12.2019 21:00:00 10,9 8,9 - - 34 18 65 35 SSW 987,4 10 0 0,4
07.12.2019 20:00:00 11,3 8,9 - - 35 19 65 35 SSW 990,3 21 0 0,0
07.12.2019 19:00:00 11,0 8,8 - - 29 16 57 31 SW 992,9 25 0 0,2
07.12.2019 18:00:00 10,7 8,6 - - 35 19 57 31 SW 994,6 22 0 0,8
07.12.2019 17:00:00 10,5 8,8 - - 34 18 55 30 SW 995,9 6 0 1,0
07.12.2019 16:00:00 9,9 8,4 - - 22 12 48 26 SW 997,8 11 0 0,8
07.12.2019 15:00:00 9,6 8,1 - - 34 18 52 28 SW 998,7 16 0 2,0
07.12.2019 14:00:00 9,3 7,2 - - 26 14 46 25 SSW 1000,3 10 0 0,2
07.12.2019 13:00:00 9,3 6,9 - - 24 13 - - SW 1001,6 50 0 0,0
07.12.2019 12:00:00 9,0 6,9 - - 24 13 - - SW 1003,1 45 0 0,0
07.12.2019 11:00:00 8,8 7,1 - - 18 10 - - WSW 1004,0 45 0 0,0
07.12.2019 10:00:00 8,5 7,0 - - 15 8 - - WSW 1004,1 50 0 0,0
07.12.2019 09:00:00 8,2 6,5 7,2 7,7 16 9 - - SW 1005,0 45 0 0,0
07.12.2019 08:00:00 7,9 6,1 - - 18 10 - - WSW 1004,3 50 0 0,0
07.12.2019 07:00:00 7,7 6,0 - - 15 8 - - WSW 1004,7 50 0 0,0
07.12.2019 06:00:00 7,9 6,0 - - 26 14 - - WSW 1004,4 50 0 0,0
07.12.2019 05:00:00 7,8 6,0 - - 22 12 - - W 1003,9 45 0 0,0
07.12.2019 04:00:00 7,9 6,9 - - 18 10 - - WSW 1003,7 50 0 0,0
07.12.2019 03:00:00 8,0 6,6 - - 18 10 - - WSW 1003,0 45 0 0,0
07.12.2019 02:00:00 8,0 6,6 - - 26 14 - - WSW 1002,2 35 0 0,0
07.12.2019 01:00:00 7,4 5,9 - - 18 10 - - WSW 1001,9 35 0 0,0
07.12.2019 00:00:00 7,8 6,1 - - 21 11 68 37 WSW 1001,8 40 - 0,0
06.12.2019 23:00:00 7,7 6,2 - - 21 11 - - WSW 1000,8 40 0 0,0
06.12.2019 22:00:00 7,6 6,0 - - 18 10 - - WSW 1000,3 45 0 0,0
06.12.2019 21:00:00 8,1 6,2 - - 28 15 - - W 999,2 30 0 0,0
06.12.2019 20:00:00 7,9 6,1 - - 22 12 46 25 WSW 998,4 40 0 0,0
06.12.2019 19:00:00 8,1 5,9 - - 24 13 - - WSW 997,7 29 0 0,0
06.12.2019 18:00:00 8,2 6,1 - - 26 14 - - WSW 996,5 35 0 0,0
06.12.2019 17:00:00 8,7 6,3 - - 24 13 - - WSW 995,1 28 0 0,0
06.12.2019 16:00:00 8,7 6,4 - - 21 11 - - WSW 994,0 45 0 0,0
06.12.2019 15:00:00 8,9 6,9 - - 22 12 - - WSW 993,0 40 12 0,0
06.12.2019 14:00:00 9,1 6,9 - - 21 11 - - WSW 992,7 45 0 0,0
06.12.2019 13:00:00 9,5 7,5 - - 22 12 - - WSW 992,3 30 0 0,0
06.12.2019 12:00:00 9,9 7,9 - - 24 13 - - WSW 992,0 23 0 0,0
06.12.2019 11:00:00 9,6 7,7 - - 21 11 - - W 991,9 17 0 0,0
06.12.2019 10:00:00 9,7 8,2 - - 18 10 - - WSW 991,9 17 0 0,2
06.12.2019 09:00:00 10,8 10,0 6,9 7,7 22 12 - - WSW 991,0 7 0 1,0
06.12.2019 08:00:00 11,0 10,1 - - 16 9 - - WSW 991,1 30 0 2,4
06.12.2019 07:00:00 11,6 9,8 - - 22 12 - - WSW 991,6 50 0 0,0
06.12.2019 06:00:00 11,6 9,7 - - 28 15 50 27 WSW 991,7 50 0 0,0
06.12.2019 05:00:00 11,6 9,6 - - 26 14 48 26 WSW 992,7 50 0 0,0
06.12.2019 04:00:00 11,6 9,8 - - 26 14 52 28 WSW 993,4 40 0 0,0
06.12.2019 03:00:00 11,6 9,7 - - 29 16 48 26 WSW 994,3 50 0 0,0
06.12.2019 02:00:00 11,3 9,6 - - 34 18 54 29 WSW 994,5 8 0 0,0
06.12.2019 01:00:00 11,2 9,7 - - 34 18 57 31 WSW 994,3 12 0 0,0
06.12.2019 00:00:00 11,2 10,2 - - 21 11 50 27 WSW 995,3 7 - 0,0
05.12.2019 23:00:00 12,0 9,9 - - 37 20 63 34 WSW 994,8 40 0 0,0
05.12.2019 22:00:00 12,2 10,0 - - 39 21 78 42 WSW 994,5 50 0 0,0
05.12.2019 21:00:00 12,3 10,1 - - 48 26 81 44 WSW 993,1 50 0 0,0
05.12.2019 20:00:00 12,3 10,5 - - 44 24 74 40 WSW 992,8 30 0 0,4
05.12.2019 19:00:00 12,3 10,8 - - 42 23 74 40 WSW 992,5 3,6 0 0,6
05.12.2019 18:00:00 12,2 10,8 - - 39 21 59 32 WSW 992,4 8 0 0,6
05.12.2019 17:00:00 10,8 9,7 - - 35 19 65 35 SW 993,1 24 0 1,4
05.12.2019 16:00:00 9,8 8,4 - - 39 21 68 37 SW 993,7 9 0 0,0
05.12.2019 15:00:00 9,3 7,4 - - 39 21 67 36 SW 995,0 30 0 0,2
05.12.2019 14:00:00 8,5 6,6 - - 41 22 70 38 SW 997,1 17 0 0,4
05.12.2019 13:00:00 8,3 6,5 - - 31 17 61 33 SW 999,8 9 0 0,0
05.12.2019 12:00:00 8,0 5,9 - - 37 20 65 35 SSW 1002,1 4,6 0 0,0
05.12.2019 11:00:00 8,2 4,7 - - 34 18 52 28 SW 1004,3 19 0 0,0
05.12.2019 10:00:00 7,7 4,2 - - 29 16 52 28 SW 1006,0 45 0 0,0
05.12.2019 09:00:00 7,3 3,8 6,5 7,7 26 14 52 28 SW 1007,3 50 0 0,0
05.12.2019 08:00:00 7,0 3,9 - - 26 14 50 27 SW 1007,6 30 0 0,0
05.12.2019 07:00:00 6,9 4,0 - - 28 15 46 25 SW 1007,9 35 0 0,0
05.12.2019 06:00:00 6,5 3,9 - - 26 14 52 28 SW 1008,4 35 0 0,0
05.12.2019 05:00:00 6,6 3,7 - - 31 17 55 30 WSW 1008,9 28 0 0,0
05.12.2019 04:00:00 6,4 3,5 - - 21 11 - - WSW 1009,4 30 0 0,0
05.12.2019 03:00:00 6,1 3,3 - - 24 13 - - SW 1010,1 28 0 0,0
05.12.2019 02:00:00 6,2 3,7 - - 26 14 57 31 SW 1010,2 30 0 0,0
05.12.2019 01:00:00 6,3 3,3 - - 26 14 48 26 SW 1010,4 30 0 0,0
05.12.2019 00:00:00 6,6 3,7 - - 24 13 46 25 SW 1010,6 26 - 0,0
04.12.2019 23:00:00 6,7 3,8 - - 28 15 - - SW 1011,2 22 0 0,0
04.12.2019 22:00:00 6,7 3,8 - - 24 13 - - WSW 1011,3 18 0 0,0
04.12.2019 21:00:00 6,4 3,5 - - 18 10 - - SW 1011,5 17 0 0,0
04.12.2019 20:00:00 7,0 4,0 - - 18 10 - - WSW 1011,5 15 0 0,0
04.12.2019 19:00:00 7,0 3,6 - - 22 12 - - SW 1011,7 16 0 0,0
04.12.2019 18:00:00 6,8 3,7 - - 21 11 - - SW 1011,7 14 0 0,0
04.12.2019 17:00:00 7,0 4,4 - - 15 8 - - SW 1011,8 14 0 0,0
04.12.2019 16:00:00 7,6 5,1 - - 22 12 - - SW 1011,0 17 0 0,0
04.12.2019 15:00:00 8,4 7,0 - - 18 10 - - WSW 1010,9 19 0 1,0
04.12.2019 14:00:00 8,7 6,6 - - 21 11 - - WSW 1010,3 35 0 0,0
04.12.2019 13:00:00 8,6 6,6 - - 26 14 - - SW 1010,3 11 0 0,0
04.12.2019 12:00:00 8,6 6,3 - - 22 12 48 26 SW 1010,4 40 0 0,0
04.12.2019 11:00:00 8,3 5,6 - - 29 16 54 29 SW 1010,8 30 6 0,0
04.12.2019 10:00:00 8,8 4,4 - - 28 15 - - SW 1010,8 40 12 0,0
04.12.2019 09:00:00 8,3 3,6 6,4 7,7 24 13 - - SW 1011,2 40 0 0,0
04.12.2019 08:00:00 8,0 3,7 - - 22 12 - - SW 1011,6 45 0 0,0
04.12.2019 07:00:00 8,1 3,9 - - 18 10 - - SW 1011,8 45 0 0,0
04.12.2019 06:00:00 7,8 4,0 - - 16 9 - - SSW 1011,9 45 0 0,0
04.12.2019 05:00:00 7,4 4,0 - - 16 9 - - SW 1012,5 45 0 0,0
04.12.2019 04:00:00 7,4 4,1 - - 15 8 - - SW 1012,9 45 0 0,0
04.12.2019 03:00:00 7,8 4,6 - - 24 13 - - SW 1013,8 40 0 0,0
04.12.2019 02:00:00 8,1 4,8 - - 26 14 - - SW 1014,3 35 0 0,0
04.12.2019 01:00:00 8,0 5,2 - - 16 9 - - WSW 1014,7 30 0 0,0
04.12.2019 00:00:00 7,9 5,2 - - 18 10 46 25 SW 1015,6 28 - 0,0
03.12.2019 23:00:00 7,1 4,1 - - 18 10 - - WSW 1016,1 35 0 0,0
03.12.2019 22:00:00 6,8 3,8 - - 18 10 - - SW 1016,8 35 0 0,0
03.12.2019 21:00:00 5,1 3,1 - - 16 9 - - WSW 1017,2 35 0 0,0
03.12.2019 20:00:00 5,1 2,4 - - 15 8 - - WSW 1017,6 35 0 0,0
03.12.2019 19:00:00 4,4 2,4 - - 8 4 - - W 1017,8 40 0 0,0
03.12.2019 18:00:00 4,6 2,2 - - 13 7 - - W 1018,1 40 0 0,0
03.12.2019 17:00:00 3,7 1,7 - - 4 2 - - WSW 1018,5 30 0 0,0
03.12.2019 16:00:00 5,0 2,5 - - 13 7 - - W 1019,0 45 18 0,0
03.12.2019 15:00:00 5,7 2,7 - - 16 9 - - WSW 1019,2 35 54 0,0
03.12.2019 14:00:00 6,1 2,7 - - 13 7 - - WSW 1019,7 30 54 0,0
03.12.2019 13:00:00 6,4 2,9 - - 22 12 46 25 WSW 1020,4 28 24 0,0
03.12.2019 12:00:00 6,3 3,3 - - 22 12 - - WSW 1021,1 35 0 0,0
03.12.2019 11:00:00 6,2 3,1 - - 26 14 - - WSW 1021,8 35 0 0,0
03.12.2019 10:00:00 6,3 3,3 - - 22 12 - - WSW 1022,4 35 0 0,0
03.12.2019 09:00:00 6,3 3,5 6,2 8,0 21 11 - - WSW 1022,3 40 0 0,0
03.12.2019 08:00:00 6,6 3,6 - - 18 10 - - SW 1022,2 35 0 0,0
03.12.2019 07:00:00 6,7 4,2 - - 18 10 - - WSW 1022,6 30 0 0,0
03.12.2019 06:00:00 7,1 4,5 - - 24 13 - - WSW 1022,5 30 0 0,0
03.12.2019 05:00:00 7,2 4,9 - - 18 10 - - SW 1023,0 27 0 0,0
03.12.2019 04:00:00 7,6 5,2 - - 21 11 - - WSW 1023,2 27 0 0,0
03.12.2019 03:00:00 7,8 5,5 - - 26 14 - - WSW 1023,7 23 0 0,0
03.12.2019 02:00:00 7,8 5,8 - - 24 13 - - WSW 1024,1 23 0 0,0
03.12.2019 01:00:00 7,7 5,9 - - 18 10 - - WSW 1024,1 20 0 0,0
03.12.2019 00:00:00 7,9 6,1 - - 28 15 - - WSW 1024,6 19 - 0,0

tt = Température de l'air
td = dewpoint
tt -20cm = Température de l'air -20cm
tt -100cm = Température de l'air -100cm
ff = Vitesse du vent
fx = gusts
dd = Direction du vent
ppp = reduced air pressure
vv = visibility
sd = Ensoleillement
rr = Quantités de précipitations

stations d'obs. à proximité